Location: Boiro
(42.6475°N, 8.8834°W)
Time: 03:29:15
(UTC+01:00)

Explorer 11/Cluster Stage 4 - Pass Details

Date: 04 December 2021
Orbit: 467 x 1255 km, 28.8° (Epoch: 20 January)

Event Time Altitude Azimuth Distance (km) Brightness Sun altitude
Rises 07:52:28 0° 257° (WSW) 3,995 - -10.2°
Exits shadow 07:53:30 - 253° (WSW) 3,726 9.6 -10.1°
Reaches altitude 10° 07:56:08 10° 240° (WSW) 3,125 9.3 -9.6°
Maximum altitude 08:01:20 19° 199° (SSW) 2,576 9.3 -8.7°
Drops below altitude 10° 08:06:41 10° 158° (SSE) 3,218 10.4 -7.8°
Sets 08:10:33 0° 142° (SE) 4,154 11.5 -7.2°
